Location: Lango�lan
(48.1202°N, 3.2340°W)
Time: 16:38:46
(UTC+00:00)

Cosmos 2208 Rocket - Pass Details

Date: 23 October 2019
Orbit: 754 x 806 km, 74.0° (Epoch: 20 November)

Event Time Altitude Azimuth Distance (km) Brightness Sun altitude
Rises 05:42:04 0° 335° (NNW) 3,231 6.9 -10.9°
Reaches altitude 10° 05:44:26 10° 332° (NNW) 2,306 6.2 -10.5°
Maximum altitude 05:49:37 66° 252° (WSW) 841 4.0 -9.7°
Drops below altitude 10° 05:54:50 10° 171° (S) 2,320 6.7 -8.8°
Sets 05:57:14 0° 168° (SSE) 3,252 7.5 -8.4°
